Location: Eastlake (historical)
(39.0077°N, 122.6678°W)
Time: 12:39:14
(UTC+00:00)

PSLV R/B - Pass Details

Date: 25 November 2020
Orbit: 503 x 578 km, 97.8° (Epoch: 25 January)

Event Time Altitude Azimuth Distance (km) Brightness Sun altitude
Rises 13:59:39 0° 11° (N) 2,719 7.3 -12.6°
Reaches altitude 10° 14:01:48 10° 10° (N) 1,808 6.4 -12.2°
Maximum altitude 14:05:42 82° 285° (WNW) 540 3.7 -11.5°
Drops below altitude 10° 14:09:28 10° 196° (SSW) 1,751 6.4 -10.8°
Sets 14:11:32 0° 196° (SSW) 2,623 7.3 -10.4°
